sat.trackr.live / text

‹ back to catalog

STARLINK-2134

NORAD 47407 · 2021-005BL

PAYLOAD ACTIVE UNKNOWN

§ Identity

Operator
Country
US
Launch date
2021-01-20
Launch site
AFETR
Launch vehicle
Mass (kg)
RCS (m²)

Purposes: comms

External: N2YO · Heavens-Above · Gunter

§ Orbital elements

Epoch: 2026-05-25T03:27:00.021600Z

Period
94.01 min
Inclination
53.1584°
Eccentricity
0.0001228
Mean motion
15.31717935 rev/d
Perigee alt
469.8 km
Apogee alt
471.5 km
Semi-major
6,848.8 km
B*
2.4144e-4
RAAN
43.2108°
Arg perigee
96.4181°
Mean anomaly
263.6960°
Rev number
29,506

§ Raw data

STARLINK-21341 47407U 21005BL  26145.14375025  .00007138  00000+0  24144-3 0  99912 47407  53.1584  43.2108 0001228  96.4181 263.6960 15.31717935295066

JSON: /api/v1/satellites/47407 · /tle

For live sub-satellite position, see the globe view (requires WebGL).

§ Visibility from observer

Set your observer location to see the next 7 days of passes ≥ 10°. The values pass through the URL so the page stays shareable.

No JS? Fill the form by hand. The geolocation button needs JavaScript.